| time (UTC) | temp C | wind direction | speed KPH | gust KPH | rain 1hr cm | rain 24hr cm | rain mn cm | humidity % | barometer mb |
| 20260506091921 | 18 | 174 | 1.6 | 3.2 | 0.00 | 0.00 | 0.00 | 61 | 1006.9 |
| 20260506091421 | 18 | 249 | 3.2 | 6.4 | 0.00 | 0.00 | 0.00 | 62 | 1007.1 |
| 20260506090851 | 17 | 83 | 3.2 | 6.4 | 0.00 | 0.00 | 0.00 | 64 | 1007.1 |
| 20260506090541 | 18 | 166 | 6.4 | 14.5 | 0.00 | 0.00 | 0.00 | 63 | 1007.2 |
| 20260506085821 | 18 | 124 | 9.7 | 12.9 | 0.00 | 0.00 | 0.00 | 64 | 1007.1 |
| 20260506085251 | 18 | 101 | 9.7 | 14.5 | 0.00 | 0.00 | 0.00 | 65 | 1007.0 |
| 20260506084721 | 18 | 51 | 6.4 | 6.4 | 0.00 | 0.00 | 0.00 | 65 | 1007.1 |
| 20260506084411 | 18 | 181 | 4.8 | 12.9 | 0.00 | 0.00 | 0.00 | 64 | 1007.2 |
| 20260506083621 | 18 | 122 | 9.7 | 12.9 | 0.00 | 0.00 | 0.00 | 66 | 1007.3 |
| 20260506083051 | 18 | 127 | 9.7 | 16.1 | 0.00 | 0.00 | 0.00 | 65 | 1007.3 |
| 20260506082521 | 18 | 134 | 6.4 | 17.7 | 0.00 | 0.00 | 0.00 | 66 | 1007.3 |
| 20260506081951 | 18 | 128 | 9.7 | 17.7 | 0.00 | 0.00 | 0.00 | 68 | 1007.5 |
| 20260506081711 | 17 | 168 | 6.4 | 9.7 | 0.00 | 0.00 | 0.00 | 68 | 1007.2 |
| 20260506080950 | 17 | 116 | 4.8 | 12.9 | 0.00 | 0.00 | 0.00 | 67 | 1007.5 |
| 20260506080450 | 17 | 90 | 6.4 | 16.1 | 0.00 | 0.00 | 0.00 | 69 | 1007.4 |
| 20260506072821 | 16 | 76 | 1.6 | 9.7 | 0.00 | 0.00 | 0.00 | 72 | 1007.3 |
| 20260506072251 | 16 | 116 | 4.8 | 6.4 | 0.00 | 0.00 | 0.00 | 72 | 1007.6 |
| 20260506071751 | 15 | 125 | 0.0 | 6.4 | 0.00 | 0.00 | 0.00 | 75 | 1007.5 |
| 20260506071223 | 15 | 97 | 4.8 | 9.7 | 0.00 | 0.00 | 0.00 | 74 | 1007.6 |
| 20260506070940 | 15 | 90 | 1.6 | 3.2 | 0.00 | 0.00 | 0.00 | 74 | 1007.9 |
| 20260506070151 | 16 | 79 | 4.8 | 9.7 | 0.00 | 0.00 | 0.00 | 73 | 1007.7 |
| 20260506062211 | 14 | 185 | 1.6 | 4.8 | 0.00 | 0.00 | 0.00 | 81 | 1007.8 |
| 20260506061451 | 14 | 212 | 3.2 | 4.8 | 0.00 | 0.00 | 0.00 | 85 | 1007.9 |
| 20260506060950 | 13 | 174 | 3.2 | 4.8 | 0.00 | 0.00 | 0.00 | 84 | 1007.7 |
| 20260506060450 | 13 | 153 | 1.6 | 3.2 | 0.00 | 0.00 | 0.00 | 85 | 1007.6 |
| 20260506051121 | 12 | 107 | 1.6 | 3.2 | 0.00 | 0.00 | 0.00 | 93 | 1007.8 |
| 20260506050840 | 12 | 91 | 0.0 | 1.6 | 0.00 | 0.00 | 0.00 | 94 | 1007.8 |
| 20260506050120 | 12 | 124 | 1.6 | 4.8 | 0.00 | 0.00 | 0.00 | 95 | 1007.9 |
| 20260506045050 | 11 | 126 | 3.2 | 4.8 | 0.00 | 0.00 | 0.00 | 95 | 1007.9 |
| 20260506044550 | 11 | 142 | 1.6 | 3.2 | 0.00 | 0.00 | 0.00 | 95 | 1008.0 |
| 20260506044050 | 11 | 78 | 0.0 | 1.6 | 0.00 | 0.00 | 0.00 | 95 | 1007.8 |
| 20260506043520 | 11 | 79 | 3.2 | 3.2 | 0.00 | 0.00 | 0.00 | 95 | 1007.7 |
| 20260506043020 | 11 | 46 | 3.2 | 4.8 | 0.00 | 0.00 | 0.00 | 95 | 1007.8 |
| 20260506042450 | 11 | 62 | 4.8 | 6.4 | 0.00 | 0.00 | 0.00 | 96 | 1007.6 |
| 20260506041950 | 11 | 58 | 4.8 | 4.8 | 0.00 | 0.00 | 0.00 | 95 | 1007.5 |
| 20260506041450 | 11 | 58 | 1.6 | 3.2 | 0.00 | 0.00 | 0.00 | 96 | 1007.7 |
| 20260506040920 | 11 | 46 | 0.0 | 1.6 | 0.00 | 0.00 | 0.00 | 96 | 1007.3 |
| 20260506040350 | 11 | 65 | 0.0 | 1.6 | 0.00 | 0.00 | 0.00 | 96 | 1007.7 |
| 20260506035850 | 11 | 65 | 0.0 | 1.6 | 0.00 | 0.00 | 0.00 | 96 | 1007.5 |
| 20260506035320 | 11 | 86 | 1.6 | 3.2 | 0.00 | 0.00 | 0.00 | 96 | 1007.9 |
| 20260506034820 | 11 | 122 | 1.6 | 1.6 | 0.00 | 0.00 | 0.00 | 96 | 1008.0 |
| 20260506034250 | 11 | 123 | 1.6 | 1.6 | 0.00 | 0.00 | 0.00 | 96 | 1008.0 |
| 20260506033750 | 11 | 122 | 3.2 | 4.8 | 0.00 | 0.00 | 0.00 | 96 | 1007.9 |
| 20260506033220 | 11 | 168 | 3.2 | 3.2 | 0.00 | 0.00 | 0.00 | 95 | 1008.1 |
| 20260506032650 | 11 | 135 | 1.6 | 1.6 | 0.00 | 0.00 | 0.00 | 95 | 1007.6 |
| 20260506032150 | 11 | 135 | 0.0 | 1.6 | 0.00 | 0.00 | 0.00 | 95 | 1007.6 |
| 20260506031650 | 11 | 129 | 1.6 | 1.6 | 0.00 | 0.00 | 0.00 | 94 | 1007.5 |
| 20260506031121 | 11 | 127 | 1.6 | 3.2 | 0.00 | 0.00 | 0.00 | 94 | 1007.7 |
| 20260506030551 | 11 | 119 | 1.6 | 3.2 | 0.00 | 0.00 | 0.00 | 94 | 1007.5 |
| 20260506030050 | 11 | 121 | 1.6 | 3.2 | 0.00 | 0.00 | 0.00 | 93 | 1007.2 |
| 20260506025521 | 11 | 113 | 0.0 | 1.6 | 0.00 | 0.00 | 0.00 | 93 | 1007.1 |
| 20260506024950 | 11 | 113 | 1.6 | 1.6 | 0.00 | 0.00 | 0.00 | 93 | 1007.3 |
| 20260506024450 | 12 | 112 | 0.0 | 1.6 | 0.00 | 0.00 | 0.00 | 93 | 1007.3 |
| 20260506023950 | 12 | 113 | 1.6 | 1.6 | 0.00 | 0.00 | 0.00 | 93 | 1007.5 |
| 20260506023451 | 12 | 113 | 1.6 | 3.2 | 0.00 | 0.00 | 0.00 | 93 | 1007.1 |
| 20260506022920 | 12 | 113 | 0.0 | 1.6 | 0.00 | 0.00 | 0.00 | 92 | 1007.0 |
| 20260506022420 | 12 | 113 | 1.6 | 3.2 | 0.00 | 0.00 | 0.00 | 92 | 1007.3 |
| 20260506022336 | 12 | 107 | 1.6 | 3.2 | 0.00 | 0.00 | 0.00 | 92 | 1007.3 |
| 20260506021321 | 12 | 121 | 1.6 | 1.6 | 0.00 | 0.00 | 0.00 | 91 | 1007.5 |
| 20260506020751 | 12 | 121 | 1.6 | 1.6 | 0.00 | 0.00 | 0.00 | 91 | 1007.2 |
| 20260506020250 | 13 | 122 | 0.0 | 3.2 | 0.00 | 0.00 | 0.00 | 91 | 1007.2 |
| 20260506015940 | 13 | 129 | 1.6 | 3.2 | 0.00 | 0.00 | 0.00 | 91 | 1007.3 |
| 20260506015220 | 13 | 119 | 1.6 | 3.2 | 0.00 | 0.00 | 0.00 | 90 | 1007.2 |
| 20260506014650 | 13 | 118 | 1.6 | 3.2 | 0.00 | 0.00 | 0.00 | 90 | 1007.0 |
| 20260506014150 | 13 | 117 | 0.0 | 1.6 | 0.00 | 0.00 | 0.00 | 90 | 1007.4 |
| 20260506013620 | 13 | 117 | 0.0 | 1.6 | 0.00 | 0.00 | 0.00 | 90 | 1007.3 |
| 20260506013050 | 13 | 117 | 0.0 | 1.6 | 0.00 | 0.00 | 0.00 | 90 | 1007.4 |
| 20260506012520 | 13 | 118 | 1.6 | 1.6 | 0.00 | 0.00 | 0.00 | 90 | 1007.2 |
| 20260506012020 | 13 | 114 | 1.6 | 3.2 | 0.00 | 0.00 | 0.00 | 90 | 1007.3 |
| 20260506011450 | 13 | 299 | 0.0 | 1.6 | 0.00 | 0.00 | 0.00 | 89 | 1007.4 |
| 20260506010921 | 13 | 300 | 0.0 | 1.6 | 0.00 | 0.00 | 0.00 | 88 | 1007.4 |
| 20260506010420 | 13 | 300 | 0.0 | 0.0 | 0.00 | 0.00 | 0.00 | 87 | 1007.4 |
| 20260506005920 | 14 | 300 | 0.0 | 1.6 | 0.00 | 0.00 | 0.00 | 85 | 1007.4 |
| 20260506005420 | 14 | 300 | 0.0 | 1.6 | 0.00 | 0.00 | 0.00 | 85 | 1007.6 |
| 20260506004850 | 14 | 300 | 0.0 | 1.6 | 0.00 | 0.00 | 0.00 | 85 | 1007.4 |
| 20260506004320 | 14 | 300 | 0.0 | 1.6 | 0.00 | 0.00 | 0.00 | 85 | 1007.3 |
| 20260506003820 | 14 | 299 | 1.6 | 3.2 | 0.00 | 0.00 | 0.00 | 84 | 1007.4 |
| 20260506003320 | 14 | 301 | 0.0 | 1.6 | 0.00 | 0.00 | 0.00 | 84 | 1007.4 |
| 20260506002750 | 14 | 306 | 0.0 | 1.6 | 0.00 | 0.00 | 0.00 | 84 | 1007.6 |
| 20260506002511 | 14 | 223 | 0.0 | 3.2 | 0.00 | 0.00 | 0.00 | 83 | 1007.3 |
| 20260506001939 | 15 | 228 | 1.6 | 9.7 | 0.00 | 0.00 | 0.00 | 82 | 1007.6 |
| 20260506001151 | 15 | 200 | 1.6 | 6.4 | 0.00 | 0.00 | 0.00 | 81 | 1007.6 |
| 20260506000650 | 15 | 229 | 1.6 | 6.4 | 0.00 | 0.00 | 0.00 | 80 | 1007.5 |
| 20260506000151 | 15 | 215 | 8.0 | 11.3 | 0.00 | 0.00 | 0.00 | 81 | 1007.7 |
| 20260505235650 | 15 | 254 | 6.4 | 12.9 | 0.00 | 0.00 | 0.00 | 80 | 1007.6 |
| 20260505235606 | 15 | 249 | 3.2 | 6.4 | 0.00 | 0.00 | 0.00 | 81 | 1007.7 |
| 20260505234620 | 15 | 260 | 4.8 | 6.4 | 0.00 | 0.00 | 0.00 | 81 | 1007.7 |
| 20260505234050 | 15 | 261 | 11.3 | 14.5 | 0.00 | 0.00 | 0.00 | 82 | 1007.8 |
| 20260505233740 | 15 | 244 | 6.4 | 11.3 | 0.00 | 0.00 | 0.00 | 81 | 1007.8 |
| 20260505233020 | 15 | 287 | 4.8 | 12.9 | 0.00 | 0.00 | 0.00 | 81 | 1007.6 |
| 20260505232710 | 15 | 255 | 9.7 | 16.1 | 0.00 | 0.00 | 0.00 | 81 | 1007.6 |
| 20260505231920 | 15 | 257 | 4.8 | 12.9 | 0.00 | 0.00 | 0.00 | 82 | 1007.5 |
| 20260505231420 | 15 | 265 | 6.4 | 11.3 | 0.00 | 0.00 | 0.00 | 81 | 1007.7 |
| 20260505231111 | 15 | 290 | 4.8 | 11.3 | 0.00 | 0.00 | 0.00 | 82 | 1007.7 |
| 20260505230321 | 15 | 248 | 4.8 | 12.9 | 0.00 | 0.00 | 0.00 | 82 | 1007.6 |
| 20260505225821 | 15 | 273 | 1.6 | 9.7 | 0.00 | 0.00 | 0.00 | 82 | 1007.5 |
| 20260505225251 | 15 | 309 | 3.2 | 11.3 | 0.00 | 0.00 | 0.00 | 82 | 1007.4 |
| 20260505224721 | 15 | 278 | 4.8 | 11.3 | 0.00 | 0.00 | 0.00 | 81 | 1007.6 |
| 20260505224411 | 15 | 270 | 8.0 | 14.5 | 0.00 | 0.00 | 0.00 | 81 | 1007.4 |
| 20260505223651 | 15 | 243 | 4.8 | 14.5 | 0.00 | 0.00 | 0.00 | 81 | 1007.3 |
| 20260505223121 | 15 | 252 | 12.9 | 17.7 | 0.00 | 0.00 | 0.00 | 81 | 1007.4 |
| 20260505222621 | 15 | 281 | 16.1 | 24.1 | 0.00 | 0.00 | 0.00 | 81 | 1007.4 |
| 20260505222121 | 15 | 257 | 6.4 | 16.1 | 0.00 | 0.00 | 0.00 | 81 | 1007.2 |
| 20260505221621 | 15 | 322 | 11.3 | 16.1 | 0.00 | 0.00 | 0.00 | 81 | 1007.4 |
| 20260505221340 | 15 | 256 | 12.9 | 17.7 | 0.00 | 0.00 | 0.00 | 80 | 1007.3 |
| 20260505220620 | 15 | 273 | 6.4 | 20.9 | 0.00 | 0.00 | 0.00 | 80 | 1007.2 |
| 20260505220051 | 15 | 252 | 6.4 | 12.9 | 0.00 | 0.00 | 0.00 | 80 | 1007.1 |
| 20260505215521 | 15 | 263 | 6.4 | 20.9 | 0.00 | 0.00 | 0.00 | 80 | 1006.9 |
| 20260505215021 | 15 | 299 | 6.4 | 16.1 | 0.00 | 0.00 | 0.00 | 79 | 1006.9 |
| 20260505214451 | 15 | 274 | 4.8 | 12.9 | 0.00 | 0.00 | 0.00 | 80 | 1006.9 |
| 20260505213921 | 15 | 293 | 9.7 | 17.7 | 0.00 | 0.00 | 0.00 | 79 | 1006.7 |
| 20260505213612 | 15 | 254 | 6.4 | 9.7 | 0.00 | 0.00 | 0.00 | 79 | 1006.9 |
| 20260505212851 | 15 | 294 | 1.6 | 11.3 | 0.00 | 0.00 | 0.00 | 79 | 1006.4 |
| 20260505212321 | 15 | 251 | 1.6 | 12.9 | 0.00 | 0.00 | 0.00 | 79 | 1006.2 |
| 20260505211821 | 15 | 247 | 0.0 | 14.5 | 0.00 | 0.00 | 0.00 | 79 | 1006.3 |
| 20260505211251 | 15 | 279 | 4.8 | 11.3 | 0.00 | 0.00 | 0.00 | 78 | 1006.2 |
| 20260505210721 | 16 | 280 | 6.4 | 9.7 | 0.00 | 0.00 | 0.00 | 78 | 1006.3 |
| 20260505210441 | 16 | 311 | 4.8 | 25.7 | 0.00 | 0.00 | 0.00 | 78 | 1006.2 |
| 20260505205650 | 16 | 309 | 3.2 | 4.8 | 0.00 | 0.00 | 0.00 | 78 | 1006.2 |
| 20260505205121 | 16 | 309 | 4.8 | 6.4 | 0.00 | 0.00 | 0.00 | 77 | 1006.1 |
| 20260505204621 | 16 | 287 | 6.4 | 9.7 | 0.00 | 0.00 | 0.00 | 77 | 1005.9 |
| 20260505204051 | 16 | 301 | 4.8 | 9.7 | 0.00 | 0.00 | 0.00 | 77 | 1005.9 |
| 20260505203521 | 16 | 285 | 4.8 | 9.7 | 0.00 | 0.00 | 0.00 | 76 | 1005.8 |
| 20260505202950 | 16 | 319 | 11.3 | 16.1 | 0.00 | 0.00 | 0.00 | 74 | 1005.9 |
| 20260505202451 | 16 | 295 | 9.7 | 12.9 | 0.00 | 0.00 | 0.00 | 73 | 1005.9 |
| 20260505201921 | 16 | 313 | 3.2 | 4.8 | 0.00 | 0.00 | 0.00 | 73 | 1005.7 |
| 20260505201420 | 16 | 276 | 4.8 | 6.4 | 0.00 | 0.00 | 0.00 | 73 | 1005.5 |
| 20260505200920 | 16 | 286 | 1.6 | 9.7 | 0.00 | 0.00 | 0.00 | 74 | 1005.3 |
| 20260505200420 | 16 | 277 | 4.8 | 6.4 | 0.00 | 0.00 | 0.00 | 74 | 1005.3 |
| 20260505195851 | 16 | 318 | 4.8 | 9.7 | 0.00 | 0.00 | 0.00 | 74 | 1005.2 |
| 20260505195351 | 16 | 312 | 3.2 | 9.7 | 0.00 | 0.00 | 0.00 | 73 | 1005.1 |
| 20260505194851 | 16 | 275 | 3.2 | 6.4 | 0.00 | 0.00 | 0.00 | 73 | 1005.0 |
| 20260505194542 | 16 | 254 | 4.8 | 6.4 | 0.00 | 0.00 | 0.00 | 74 | 1005.3 |
| 20260505193821 | 16 | 307 | 3.2 | 6.4 | 0.00 | 0.00 | 0.00 | 75 | 1005.0 |
| 20260505193251 | 16 | 258 | 1.6 | 9.7 | 0.00 | 0.00 | 0.00 | 76 | 1004.8 |
| 20260505192751 | 16 | 264 | 3.2 | 9.7 | 0.00 | 0.00 | 0.00 | 77 | 1004.8 |
| 20260505192251 | 16 | 311 | 3.2 | 6.4 | 0.00 | 0.00 | 0.00 | 77 | 1004.2 |
| 20260505192010 | 16 | 329 | 4.8 | 6.4 | 0.00 | 0.00 | 0.00 | 78 | 1004.3 |
| 20260505191221 | 16 | 6 | 6.4 | 9.7 | 0.00 | 0.00 | 0.00 | 79 | 1004.2 |
| 20260505190720 | 16 | 21 | 6.4 | 9.7 | 0.00 | 0.00 | 0.00 | 79 | 1004.3 |
| 20260505190151 | 16 | 9 | 1.6 | 3.2 | 0.00 | 0.00 | 0.00 | 78 | 1004.4 |
| 20260505185651 | 16 | 24 | 3.2 | 4.8 | 0.00 | 0.00 | 0.00 | 79 | 1004.2 |
| 20260505185341 | 16 | 11 | 3.2 | 4.8 | 0.00 | 0.00 | 0.00 | 79 | 1004.3 |
| 20260505184551 | 16 | 324 | 3.2 | 6.4 | 0.00 | 0.00 | 0.00 | 78 | 1004.3 |
| 20260505184051 | 16 | 2 | 4.8 | 11.3 | 0.00 | 0.00 | 0.00 | 77 | 1004.2 |
| 20260505183521 | 17 | 4 | 8.0 | 12.9 | 0.00 | 0.00 | 0.00 | 77 | 1004.3 |
| 20260505182951 | 17 | 327 | 8.0 | 17.7 | 0.00 | 0.00 | 0.00 | 73 | 1004.5 |
| 20260505182712 | 17 | 328 | 6.4 | 14.5 | 0.00 | 0.00 | 0.00 | 70 | 1004.3 |
| 20260505181921 | 17 | 301 | 12.9 | 24.1 | 0.00 | 0.00 | 0.00 | 69 | 1004.7 |
| 20260505181421 | 18 | 344 | 3.2 | 25.7 | 0.00 | 0.00 | 0.00 | 67 | 1004.6 |
| 20260505180851 | 18 | 296 | 9.7 | 22.5 | 0.00 | 0.00 | 0.00 | 65 | 1004.2 |
| 20260505180321 | 18 | 321 | 14.5 | 33.8 | 0.00 | 0.00 | 0.00 | 63 | 1004.4 |
| 20260505175821 | 18 | 231 | 12.9 | 29.0 | 0.00 | 0.00 | 0.00 | 62 | 1004.2 |
| 20260505175251 | 19 | 255 | 29.0 | 49.9 | 0.00 | 0.00 | 0.00 | 60 | 1004.0 |
| 20260505174721 | 19 | 266 | 22.5 | 33.8 | 0.00 | 0.00 | 0.00 | 57 | 1004.0 |
| 20260505174221 | 19 | 248 | 19.3 | 24.1 | 0.00 | 0.00 | 0.00 | 55 | 1004.1 |
| 20260505173910 | 20 | 329 | 16.1 | 25.7 | 0.00 | 0.00 | 0.00 | 55 | 1003.6 |
| 20260505173121 | 20 | 289 | 12.9 | 29.0 | 0.00 | 0.00 | 0.00 | 55 | 1003.6 |
| 20260505172551 | 20 | 278 | 22.5 | 33.8 | 0.00 | 0.00 | 0.00 | 55 | 1003.7 |
| 20260505172051 | 20 | 312 | 14.5 | 27.4 | 0.00 | 0.00 | 0.00 | 54 | 1003.6 |
| 20260505171551 | 20 | 299 | 29.0 | 43.5 | 0.00 | 0.00 | 0.00 | 54 | 1003.3 |
| 20260505171312 | 21 | 262 | 29.0 | 51.5 | 0.00 | 0.00 | 0.00 | 53 | 1003.5 |
| 20260505170551 | 21 | 272 | 25.7 | 35.4 | 0.00 | 0.00 | 0.00 | 51 | 1003.3 |
| 20260505170050 | 22 | 222 | 17.7 | 25.7 | 0.00 | 0.00 | 0.00 | 47 | 1003.0 |
| 20260505165521 | 24 | 259 | 11.3 | 24.1 | 0.00 | 0.00 | 0.00 | 35 | 1002.6 |
| 20260505165020 | 24 | 217 | 8.0 | 25.7 | 0.00 | 0.00 | 0.00 | 35 | 1002.5 |
| 20260505164451 | 24 | 182 | 4.8 | 20.9 | 0.00 | 0.00 | 0.00 | 35 | 1002.4 |
| 20260505164141 | 25 | 221 | 4.8 | 6.4 | 0.00 | 0.00 | 0.00 | 36 | 1002.2 |
| 20260505163420 | 25 | 249 | 1.6 | 9.7 | 0.00 | 0.00 | 0.00 | 37 | 1002.6 |
| 20260505162851 | 25 | 252 | 8.0 | 12.9 | 0.00 | 0.00 | 0.00 | 37 | 1002.5 |
| 20260505162350 | 25 | 257 | 1.6 | 4.8 | 0.00 | 0.00 | 0.00 | 37 | 1002.5 |
| 20260505161851 | 25 | 213 | 1.6 | 3.2 | 0.00 | 0.00 | 0.00 | 37 | 1002.7 |
| 20260505161612 | 25 | 236 | 1.6 | 4.8 | 0.00 | 0.00 | 0.00 | 37 | 1002.7 |
| 20260505160821 | 25 | 220 | 4.8 | 9.7 | 0.00 | 0.00 | 0.00 | 36 | 1002.8 |
| 20260505160321 | 25 | 185 | 4.8 | 4.8 | 0.00 | 0.00 | 0.00 | 37 | 1002.8 |
| 20260505153121 | 26 | 174 | 3.2 | 6.4 | 0.00 | 0.00 | 0.00 | 35 | 1002.6 |
| 20260505152621 | 26 | 188 | 3.2 | 6.4 | 0.00 | 0.00 | 0.00 | 35 | 1002.9 |
| 20260505152051 | 26 | 178 | 3.2 | 6.4 | 0.00 | 0.00 | 0.00 | 35 | 1002.8 |
| 20260505151812 | 26 | 182 | 1.6 | 11.3 | 0.00 | 0.00 | 0.00 | 35 | 1002.8 |
| 20260505151051 | 26 | 210 | 4.8 | 6.4 | 0.00 | 0.00 | 0.00 | 34 | 1003.1 |
| 20260505150521 | 26 | 218 | 3.2 | 9.7 | 0.00 | 0.00 | 0.00 | 34 | 1003.2 |
| 20260505140251 | 26 | 9 | 3.2 | 9.7 | 0.00 | 0.00 | 0.00 | 35 | 1003.9 |
| 20260505125020 | 26 | 183 | 1.6 | 4.8 | 0.00 | 0.00 | 0.00 | 32 | 1004.8 |
| 20260505124450 | 26 | 171 | 4.8 | 9.7 | 0.00 | 0.00 | 0.00 | 36 | 1004.6 |
| 20260505124140 | 26 | 261 | 1.6 | 3.2 | 0.00 | 0.00 | 0.00 | 34 | 1004.7 |
| 20260505123420 | 26 | 26 | 3.2 | 6.4 | 0.00 | 0.00 | 0.00 | 35 | 1004.7 |
| 20260505122850 | 26 | 256 | 0.0 | 4.8 | 0.00 | 0.00 | 0.00 | 35 | 1005.0 |
| 20260505122350 | 26 | 160 | 8.0 | 11.3 | 0.00 | 0.00 | 0.00 | 37 | 1005.1 |
| 20260505121850 | 25 | 123 | 12.9 | 16.1 | 0.00 | 0.00 | 0.00 | 40 | 1004.9 |
| 20260505121541 | 25 | 49 | 0.0 | 3.2 | 0.00 | 0.00 | 0.00 | 39 | 1004.9 |
| 20260505120751 | 25 | 69 | 4.8 | 6.4 | 0.00 | 0.00 | 0.00 | 42 | 1005.3 |
| 20260505120251 | 25 | 223 | 4.8 | 11.3 | 0.00 | 0.00 | 0.00 | 41 | 1005.4 |
| 20260505115721 | 25 | 178 | 6.4 | 9.7 | 0.00 | 0.00 | 0.00 | 43 | 1005.4 |
| 20260505115221 | 25 | 228 | 0.0 | 4.8 | 0.00 | 0.00 | 0.00 | 42 | 1005.5 |
| 20260505114910 | 25 | 158 | 3.2 | 6.4 | 0.00 | 0.00 | 0.00 | 41 | 1005.6 |
| 20260505114606 | 25 | 204 | 3.2 | 9.7 | 0.00 | 0.00 | 0.00 | 44 | 1005.6 |
| 20260505113550 | 25 | 24 | 3.2 | 3.2 | 0.00 | 0.00 | 0.00 | 41 | 1005.6 |
| 20260505113051 | 26 | 75 | 3.2 | 6.4 | 0.00 | 0.00 | 0.00 | 42 | 1005.8 |
| 20260505112521 | 25 | 170 | 4.8 | 6.4 | 0.00 | 0.00 | 0.00 | 46 | 1006.0 |
| 20260505112020 | 25 | 153 | 9.7 | 12.9 | 0.00 | 0.00 | 0.00 | 45 | 1005.8 |
| 20260505111711 | 25 | 146 | 8.0 | 14.5 | 0.00 | 0.00 | 0.00 | 43 | 1005.9 |
| 20260505110950 | 24 | 161 | 4.8 | 6.4 | 0.00 | 0.00 | 0.00 | 44 | 1006.2 |
| 20260505110421 | 24 | 158 | 6.4 | 12.9 | 0.00 | 0.00 | 0.00 | 46 | 1006.1 |
| 20260505102220 | 23 | 267 | 3.2 | 6.4 | 0.00 | 0.00 | 0.00 | 47 | 1006.6 |
| 20260505101650 | 23 | 304 | 4.8 | 4.8 | 0.00 | 0.00 | 0.00 | 49 | 1006.9 |
| 20260505101342 | 23 | 37 | 1.6 | 4.8 | 0.00 | 0.00 | 0.00 | 50 | 1006.8 |
| 20260505100551 | 22 | 169 | 1.6 | 6.4 | 0.00 | 0.00 | 0.00 | 50 | 1007.0 |
| 20260505100051 | 22 | 283 | 4.8 | 9.7 | 0.00 | 0.00 | 0.00 | 50 | 1007.0 |
| 20260505095521 | 22 | 260 | 3.2 | 6.4 | 0.00 | 0.00 | 0.00 | 51 | 1006.9 |
| 20260505095021 | 23 | 181 | 1.6 | 12.9 | 0.00 | 0.00 | 0.00 | 49 | 1007.1 |
| 20260505094451 | 23 | 61 | 0.0 | 9.7 | 0.00 | 0.00 | 0.00 | 49 | 1007.3 |
| 20260505093921 | 22 | 140 | 4.8 | 11.3 | 0.00 | 0.00 | 0.00 | 50 | 1007.1 |
| 20260505093421 | 22 | 167 | 3.2 | 4.8 | 0.00 | 0.00 | 0.00 | 51 | 1007.4 |
| 20260505092851 | 22 | 174 | 4.8 | 6.4 | 0.00 | 0.00 | 0.00 | 53 | 1007.3 |
| 20260505092351 | 22 | 42 | 3.2 | 3.2 | 0.00 | 0.00 | 0.00 | 50 | 1007.5 |